Regional Weather Roundup
Issued by NWS

Home | Current Version | Previous Version | Text Only | Print | Product List | Glossary On
Versions: 1 2 3 4 5 6 7 8 9 10 11 12 13 14 15 16 17 18 19 20 21 22 23 24 25 26 27 28 29 30 31 32 33 34 35 36 37 38 39 40 41 42 43 44 45 46 47
000
ASUS45 KTFX 281610
RWRMT
MONTANA REGIONAL WEATHER ROUNDUP
NATIONAL WEATHER SERVICE GREAT FALLS MT
1000 AM MDT THU MAY 28 2015

NOTE: "FAIR" INDICATES FEW OR NO CLOUDS BELOW 12000 FEET WITH NO
SIGNIFICANT WEATHER AND/OR OBSTRUCTIONS TO VISIBILITY.

MTZ001>007-043-281700-
WEST OF THE DIVIDE

CITY           SKY/WX    TMP DP  RH WIND       PRES   REMARKS
KALISPELL      PTSUNNY   59  48  67 VRB3      30.12R
MISSOULA       PTSUNNY   56  46  69 CALM      30.14S
BUTTE          CLOUDY    49  43  80 SE5       30.16R
MULLAN PASS    CLOUDY    49  44  83 N3        30.19R
DEER LODGE       N/A     55  46  71 CALM      30.18R
EUREKA           N/A     54  54 100 CALM      30.15R
HAMILTON         N/A     57  46  67 NW2       30.14S
LIBBY            N/A     59  54  82 NW6       30.13F
RONAN            N/A     57  52  84 CALM      30.17R
$$

MTZ008-052>055-281700-
SOUTHWEST MONTANA

CITY           SKY/WX    TMP DP  RH WIND       PRES   REMARKS
BOZEMAN        CLOUDY    52  47  83 W3        30.12R
DILLON         CLOUDY    53  42  66 SW3       30.13R
W YELLOWSTONE  CLOUDY    43  41  93 SW6       30.16S
THREE FORKS      N/A     54  34  46 SW7       30.10R
TWIN BRIDGES     N/A     53  44  71 CALM      30.11R
$$

MTZ009-010-012-014-046-048-049-054-281700-
EAST SLOPES AND CENTRAL MONTANA

CITY           SKY/WX    TMP DP  RH WIND       PRES   REMARKS
CUT BANK       CLOUDY    54  48  80 N25G32    30.11R
GREAT FALLS    LGT RAIN  53  48  83 N13       30.09R
MALMSTROM AFB  RAIN      53  49  87 N10       30.09R
HELENA         LGT RAIN  55  49  80 NE3       30.11R
CONRAD           N/A     56  55  96 W13       30.11R
$$

MTZ011-013-016-021-045-047-050-051-281700-
NORTH CENTRAL MONTANA

CITY           SKY/WX    TMP DP  RH WIND       PRES   REMARKS
HAVRE          PTSUNNY   60  51  72 W6        30.02R
LEWISTOWN      CLOUDY    58  48  69 NW7       30.05S
N BAR RANCH    FAIR      61  46  59 NW12G18   30.06S
CHINOOK          N/A     63  54  72 W7        30.00S
FORT BENTON      N/A     63  50  63 W8        30.06S
$$

MTZ017>020-022>027-061-062-281700-
NORTHEAST MONTANA

CITY           SKY/WX    TMP DP  RH WIND       PRES   REMARKS
GLASGOW        PTSUNNY   64  53  67 NW10      29.93R
JORDAN           N/A     66  51  58 NW10      29.95R
SIDNEY         SUNNY     68  57  68 SE7       29.88F
WOLF POINT     CLOUDY    64  57  78 SW8       29.91R
MALTA            N/A     64  50  60 NW8       29.94R
PLENTYWOOD       N/A     64  55  72 N12       29.90S
POPLAR           N/A     64  57  77 SW6       29.91R
$$

MTZ028>42-056>058-281700-
SOUTHCENTRAL AND SOUTHEAST MONTANA

CITY           SKY/WX    TMP DP  RH WIND       PRES   REMARKS
BAKER          PTSUNNY   67  53  61 NW10      29.95R
BILLINGS       CLOUDY    63  48  58 NW9       30.03R
LIVINGSTON     PTSUNNY   57  47  69 W12       30.08S
MILES CITY     MOSUNNY   66  53  63 NW9       29.95S
BIG TIMBER       N/A     57  45  62 SW14      30.08R
LAUREL           N/A     59  49  69 S1        30.01S
ROUNDUP          N/A     60  49  67 CALM      29.93S
$$

REGIONAL REPORTS...DAKOTAS

CITY           SKY/WX    TMP DP  RH WIND       PRES   REMARKS
WILLISTON      CLOUDY    66  58  75 SW3       29.88R
MINOT          PTSUNNY   66  57  72 W8        29.85S
DICKINSON      MOSUNNY   67  55  65 VRB5      29.89S
BEACH          FAIR      66  59  77 NW10      29.93S
CROSBY         CLOUDY    61  61 100 NW13      29.90R
WATFORD CITY   FAIR      66  57  72 W7        29.87R
BISMARCK       MOSUNNY   70  59  68 W7        29.87F
GRAND FORKS    PTSUNNY   66  60  81 SE7       29.87F
FARGO          PTSUNNY   71  62  73 SE10      29.88F
BUFFALO SD       N/A     68  55  63 NW16      29.87S
RAPID CITY     PTSUNNY   68  53  58 N12       29.94F
$$

REGIONAL REPORTS...WYOMING/IDAHO/WASHINGTON

CITY           SKY/WX    TMP DP  RH WIND       PRES   REMARKS
GILLETTE       CLOUDY    59  51  75 N9        30.01S
SHERIDAN       CLOUDY    55  51  86 NW6       30.04R
BUFFALO WY     LGT RAIN  55  48  77 N16G28    30.05S
CODY           CLOUDY    52  46  82 NE9       30.09R
IDAHO FALLS    LGT RAIN  48  43  82 E6        30.15R
SALMON         CLOUDY    54  46  76 N5        30.14R
BOISE          SUNNY     62  46  55 CALM      30.10S
SPOKANE        MOSUNNY   63  49  60 S8        30.10R
$$

REGIONAL REPORTS...ALBERTA

CITY           SKY/WX    TMP DP  RH WIND       PRES   REMARKS
EDMONTON       SUNNY     45  32  61 NE13G18   30.29R
CALGARY        CLOUDY    48  43  81 N20       30.23R
LETHBRIDGE     CLOUDY    54  50  87 N17G26    30.15R SMOKE
MEDICINE HAT   CLOUDY    61  54  77 N13       30.07R
$$

REGIONAL REPORTS...SASKATCHEWAN

CITY           SKY/WX    TMP DP  RH WIND       PRES   REMARKS
SWIFT CURRENT  PTSUNNY   64  48  55 N18G24    29.98R
REGINA         MOSUNNY   64  54  68 W10       29.92F
SASKATOON      CLOUDY    48  45  87 N24G32    30.05R
$$


USA.gov is the U.S. government's official web portal to all federal, state and local government web resources and services.